Location: Siratepeler Tepesi
(39.1042°N, 32.0781°E)
Time: 13:27:57
(UTC+00:00)

MOS 1-B - Pass Details

Date: 11 April 2026
Orbit: 904 x 911 km, 99.2° (Epoch: 13 May)

Event Time Altitude Azimuth Distance (km) Brightness Sun altitude
Exits shadow 18:31:02 52° 116° (ESE) 1,119 4.4 -23.3°
Maximum altitude 18:32:07 61° 72° (ENE) 1,023 4.4 -23.5°
Drops below altitude 10° 18:37:48 10° 353° (N) 2,595 7.2 -24.4°
Sets 18:40:14 0° 350° (N) 3,540 8.1 -24.8°
